User: anonymous   Login
Location: NJAA Observatory
(40.6819°N, 74.8979°W)
Time: 05:27:47
(UTC-04:00)
Language:

CENTAUR R/B - Orbit

View from above orbital plane
View from above orbital plane
View from above satellite
View from above satellite

Ground track
Ground track

The orbit data is extracted from the following two-line orbital elements,

1 26906U 01040B   18167.89228302 0.00000000  00000-0  00000-0 0    08
2 26906  63.4567 118.2221 0387756 341.2627  18.7373 13.44029331    03
Epoch (UTC): 16 June 2018 21:24:53
Eccentricity: 0.0387756
inclination: 63.4567°
perigee height: 804 km
apogee height: 1384 km
right ascension of ascending node: 118.2221°
argument of perigee: 341.2627°
revolutions per day: 13.44029331
mean anomaly at epoch: 18.7373°
orbit number at epoch: 0

The dashed part of the orbit path shows where the satellite is in the earth's shadow,  

DLR